Weather in Malyye Karmaly

Russia / Chuvash Republic     55°09′35″N   47°12′47″E
temp.,
°C
wind,
m/s
gust,
m/s
humid.,
%
clouds,
%
prec.,
mm/h
press.,
hPa
HPBL,
m
13 may, thu
thu1300:00+15se366324 0.0 102494
03:00+14ese35715 0.0 102486
06:00+16ese397179 0.0 1023264
09:00+21ese6115362 0.0 1022666
12:00+22sse6115098 0.0 10221366
15:00+21se61361100 0.3 1020937
18:00+21sse51261100 0.0 1019591
21:00+18sse4117096 0.1 1019311
14 may, fri
fri1400:00+15sse3109190 3.6 1020253
03:00+13sse349079 3.9 102065
06:00+16ssw238533 0.0 1020108
09:00+20ssw2371100 0.0 1021491
12:00+24s2456100 0.0 10201178
15:00+25s455121 0.0 10201701
18:00+23sse356721 0.3 1018142
21:00+18sse3775100 0.3 1019100
15 may, sat
sat1500:00+17sse3577100 0.0 101871
03:00+16sse377290 0.0 1018112
06:00+18s4126671 0.0 1018311
09:00+24s5134558 0.0 1018603
12:00+27s61035100 0.0 10181258
15:00+27s61137100 0.0 10181334
18:00+23s5124854 0.0 1017474
21:00+18sse4136211 0.0 1017242
16 may, sun
sun1600:00+17s4115887 0.0 1017198
03:00+16ssw39595 0.0 1017160
06:00+18ssw311636 0.0 1017292
09:00+24ssw594650 0.0 1017616
12:00+27ssw5937100 0.0 10161378
15:00+27sw4842100 0.0 10161605
18:00+23sw366199 0.0 1016170
21:00+18sw357710 0.0 101678
17 may, mon
mon1700:00+17sw3476100 0.0 101756
03:00+16wsw2281100 0.0 101816
06:00+18sw007677 0.0 101865
09:00+24se01565 0.0 1018542
12:00+27se2343100 0.0 10171324
15:00+29ssw1435100 0.0 10172336
18:00+25ssw356147 0.0 1018176
21:00+18ssw22645 0.4 101820